Date String (YYYY-MM-DD hh:mm:ss) UTC,Instrument flags,Ambient pressure (hPa),Sample flow (lpm),Bypass flow (lpm),Sample temperature (°C),Ambient temperature (°C),ASC tube jacket temperature (°C),LED temperature (°C),Box temperature (°C),Sample RH (%),Span deviation,Mass concentration (μg/m³),Mass concentration (μg/m³),Mass concentration (μg/m³)
DateTimeUTC,F1_M11,P_M11,Q1_M11,Q2_M11,T1_M11,T2_M11,T3_M11,T4_M11,T5_M11,U1_M11,ZSPAN_M11,X0_M11,X2_M11,X1_M11
2022-01-04 19:00:00,,0818.5,5.00,0.00,22.3,21.2,00.0,31.4,23.9,08.6,0000.0,0007.25,0001.05,0000.57
2022-01-04 19:01:00,,0818.3,4.99,0.00,22.3,21.2,00.0,31.4,23.9,08.5,0000.0,0007.64,0001.11,0000.58
2022-01-04 19:02:00,,0818.3,5.00,0.00,22.3,21.2,00.0,31.4,23.9,09.0,0000.0,0007.39,0001.11,0000.58
2022-01-04 19:03:00,,0818.4,5.01,0.00,22.3,21.3,00.0,31.4,23.9,08.7,0000.0,0007.35,0001.13,0000.60
2022-01-04 19:04:00,,0818.4,5.00,0.00,22.3,21.3,00.0,31.4,23.9,09.2,0000.0,0006.74,0001.12,0000.60
2022-01-04 19:05:00,,0818.4,4.99,0.00,22.3,21.2,00.0,31.4,23.9,09.6,0000.0,0006.96,0001.22,0000.61
2022-01-04 19:06:00,,0818.4,5.02,0.00,22.3,21.2,00.0,31.4,24.0,09.3,0000.0,0007.06,0001.23,0000.61
2022-01-04 19:07:00,,0818.4,4.98,0.00,22.3,21.2,00.0,31.4,24.0,09.2,0000.0,0007.35,0001.26,0000.61
2022-01-04 19:08:00,,0818.1,5.03,0.00,22.3,21.2,00.0,31.4,24.0,09.1,0000.0,0007.67,0001.31,0000.63
2022-01-04 19:09:00,,0818.1,4.99,0.00,22.3,21.2,00.0,31.4,23.9,08.7,0000.0,0007.61,0001.32,0000.65
2022-01-04 19:10:00,,0818.4,5.01,0.00,22.3,21.3,00.0,31.4,23.9,09.0,0000.0,0007.64,0001.34,0000.66
2022-01-04 19:11:00,,0818.3,4.98,0.00,22.3,21.3,00.0,31.4,24.0,09.4,0000.0,0007.34,0001.39,0000.67
2022-01-04 19:12:00,,0818.0,5.01,0.00,22.3,21.3,00.0,31.4,23.9,09.3,0000.0,0006.33,0001.40,0000.68
2022-01-04 19:13:00,,0818.1,5.01,0.00,22.3,21.3,00.0,31.4,24.0,08.6,0000.0,0005.88,0001.45,0000.70
2022-01-04 19:14:00,,0818.1,4.98,0.00,22.3,21.3,00.0,31.4,24.0,08.6,0000.0,0005.62,0001.44,0000.71
2022-01-04 19:15:00,,0818.0,5.00,0.00,22.3,21.3,00.0,31.4,24.0,08.9,0000.0,0004.71,0001.38,0000.71
2022-01-04 19:16:00,,0818.0,5.01,0.00,22.3,21.3,00.0,31.4,23.9,09.0,0000.0,0005.02,0001.37,0000.72
2022-01-04 19:17:00,,0818.0,4.99,0.00,22.3,21.3,00.0,31.4,24.0,08.7,0000.0,0005.20,0001.39,0000.73
2022-01-04 19:18:00,,0818.1,5.00,0.00,22.3,21.3,00.0,31.4,24.0,08.8,0000.0,0006.15,0001.35,0000.73
2022-01-04 19:19:00,,0818.1,5.01,0.00,22.3,21.3,00.0,31.4,23.9,09.1,0000.0,0007.26,0001.33,0000.74
2022-01-04 19:20:00,,0818.0,5.00,0.00,22.3,21.2,00.0,31.4,23.9,09.6,0000.0,0007.25,0001.34,0000.72
2022-01-04 19:21:00,,0817.8,4.99,0.00,22.3,21.2,00.0,31.4,24.0,09.2,0000.0,0007.47,0001.37,0000.72
2022-01-04 19:22:00,,0817.7,5.01,0.00,22.3,21.3,00.0,31.4,24.0,09.1,0000.0,0007.43,0001.35,0000.72
2022-01-04 19:23:00,,0817.9,4.99,0.00,22.3,21.3,00.0,31.4,23.9,09.4,0000.0,0007.05,0001.30,0000.71
2022-01-04 19:24:00,,0817.8,5.00,0.00,22.3,21.3,00.0,31.4,23.9,10.1,0000.0,0007.49,0001.24,0000.70
2022-01-04 19:25:00,,0817.8,5.00,0.00,22.3,21.2,00.0,31.4,23.9,09.0,0000.0,0007.60,0001.29,0000.72
2022-01-04 19:26:00,,0817.9,5.01,0.00,22.3,21.2,00.0,31.4,23.9,09.2,0000.0,0007.90,0001.35,0000.73
2022-01-04 19:27:00,,0817.9,4.99,0.00,22.3,21.1,00.0,31.4,23.9,09.6,0000.0,0007.98,0001.36,0000.74
2022-01-04 19:28:00,,0817.8,5.00,0.00,22.3,21.2,00.0,31.4,23.9,09.7,0000.0,0007.85,0001.33,0000.75
2022-01-04 19:29:00,,0817.8,5.01,0.00,22.3,21.2,00.0,31.4,23.9,08.8,0000.0,0007.26,0001.34,0000.75
2022-01-04 19:30:00,,0817.8,4.99,0.00,22.3,21.2,00.0,31.4,23.9,08.7,0000.0,0006.08,0001.32,0000.73
2022-01-04 19:31:00,,0817.8,5.01,0.00,22.3,21.2,00.0,31.4,24.0,09.2,0000.0,0006.32,0001.28,0000.73
2022-01-04 19:32:00,,0817.7,4.99,0.00,22.3,21.2,00.0,31.4,24.0,09.0,0000.0,0005.90,0001.23,0000.73
2022-01-04 19:33:00,,0817.7,5.00,0.00,22.3,21.2,00.0,31.4,24.0,08.9,0000.0,0005.90,0001.22,0000.72
2022-01-04 19:34:00,,0817.8,5.00,0.00,22.3,21.3,00.0,31.4,24.0,08.9,0000.0,0006.12,0001.24,0000.71
2022-01-04 19:35:00,,0817.9,4.99,0.00,22.4,21.3,00.0,31.4,24.0,08.8,0000.0,0005.67,0001.26,0000.70
2022-01-04 19:36:00,,0817.8,5.00,0.00,22.4,21.3,00.0,31.4,24.1,09.1,0000.0,0006.58,0001.27,0000.70
2022-01-04 19:37:00,,0817.7,5.01,0.00,22.4,21.4,00.0,31.4,24.0,08.9,0000.0,0006.07,0001.19,0000.67
2022-01-04 19:38:00,,0817.6,5.01,0.00,22.4,21.3,00.0,31.4,24.0,08.7,0000.0,0006.35,0001.12,0000.65
2022-01-04 19:39:00,,0817.7,5.01,0.00,22.4,21.3,00.0,31.4,24.0,08.7,0000.0,0006.45,0001.11,0000.63
2022-01-04 19:40:00,,0817.6,4.99,0.00,22.3,21.3,00.0,31.4,24.0,09.0,0000.0,0006.46,0001.14,0000.63
2022-01-04 19:41:00,,0817.6,5.01,0.00,22.3,21.3,00.0,31.4,24.0,09.1,0000.0,0006.10,0001.16,0000.65
2022-01-04 19:42:00,,0817.6,4.99,0.00,22.3,21.3,00.0,31.4,23.9,09.3,0000.0,0006.06,0001.16,0000.64
2022-01-04 19:43:00,,0817.7,5.02,0.00,22.3,21.2,00.0,31.4,23.9,09.4,0000.0,0006.24,0001.17,0000.62
2022-01-04 19:44:00,,0817.8,5.00,0.00,22.3,21.2,00.0,31.4,24.0,09.6,0000.0,0006.32,0001.19,0000.60
2022-01-04 19:45:00,,0817.9,5.00,0.00,22.4,21.3,00.0,31.4,24.0,09.2,0000.0,0007.11,0001.17,0000.60
2022-01-04 19:46:00,,0817.9,5.00,0.00,22.4,21.3,00.0,31.4,24.0,09.2,0000.0,0007.44,0001.15,0000.59
2022-01-04 19:47:00,,0817.8,5.00,0.00,22.4,21.3,00.0,31.4,24.0,09.0,0000.0,0006.13,0001.12,0000.57
2022-01-04 19:48:00,,0817.9,5.00,0.00,22.4,21.3,00.0,31.4,24.0,09.0,0000.0,0006.47,0001.13,0000.56
2022-01-04 19:49:00,,0817.6,5.01,0.00,22.4,21.3,00.0,31.4,24.0,09.6,0000.0,0006.16,0001.19,0000.55
2022-01-04 19:50:00,,0817.7,4.99,0.00,22.4,21.4,00.0,31.4,24.0,09.6,0000.0,0006.46,0001.19,0000.54
2022-01-04 19:51:00,,0817.7,5.00,0.00,22.4,21.4,00.0,31.4,24.0,08.7,0000.0,0007.55,0001.15,0000.52
2022-01-04 19:52:00,,0817.7,5.00,0.00,22.4,21.4,00.0,31.4,24.0,08.7,0000.0,0007.49,0001.13,0000.50
2022-01-04 19:53:00,,0817.9,5.00,0.00,22.4,21.4,00.0,31.4,24.0,08.8,0000.0,0007.27,0001.14,0000.49
2022-01-04 19:54:00,,0817.8,4.99,0.00,22.4,21.3,00.0,31.4,24.0,09.3,0000.0,0007.14,0001.12,0000.48
2022-01-04 19:55:00,,0817.7,5.02,0.00,22.4,21.3,00.0,31.4,24.0,08.8,0000.0,0007.56,0001.10,0000.49
2022-01-04 19:56:00,,0817.7,4.98,0.00,22.4,21.4,00.0,31.4,24.0,08.8,0000.0,0006.48,0001.09,0000.49
2022-01-04 19:57:00,,0817.8,5.01,0.00,22.3,21.4,00.0,31.4,24.0,08.8,0000.0,0005.98,0001.08,0000.49
2022-01-04 19:58:00,,0817.9,5.01,0.00,22.3,21.3,00.0,31.4,24.0,08.9,0000.0,0005.90,0001.05,0000.49
2022-01-04 19:59:00,,0817.8,4.99,0.00,22.4,21.3,00.0,31.4,24.0,09.3,0000.0,0005.40,0001.03,0000.48
